date,time,SUV Intensity [MED/Hr],UV Index,Daily total [MED],Since Last [MED]
24/02/2022,00:05:02,0.000,0.0,0.0,0.0
24/02/2022,00:06:02,0.000,0.0,0.0,0.0
24/02/2022,00:07:02,-0.000,0.0,0.0,0.0
24/02/2022,00:08:02,0.000,0.0,0.0,0.0
24/02/2022,00:09:02,0.000,0.0,0.0,0.0
24/02/2022,00:10:02,0.000,0.0,0.0,0.0
24/02/2022,00:11:02,-0.001,0.0,0.0,0.0
24/02/2022,00:12:02,0.000,0.0,0.0,0.0
24/02/2022,00:13:10,0.000,0.0,0.0,0.0
24/02/2022,00:14:01,-0.000,0.0,0.0,0.0
24/02/2022,00:15:02,0.000,0.0,0.0,0.0
24/02/2022,00:16:02,0.001,0.0,0.0,0.0
24/02/2022,00:17:02,0.000,0.0,0.0,0.0
24/02/2022,00:18:02,0.000,0.0,0.0,0.0
24/02/2022,00:19:02,-0.001,0.0,0.0,0.0
24/02/2022,00:20:02,0.000,0.0,0.0,0.0
24/02/2022,00:21:02,0.000,0.0,0.0,0.0
24/02/2022,00:22:02,0.000,0.0,0.0,0.0
24/02/2022,00:23:02,0.000,0.0,0.0,0.0
24/02/2022,00:24:02,-0.000,0.0,0.0,0.0
24/02/2022,00:25:03,0.000,0.0,0.0,0.0
24/02/2022,00:26:02,-0.000,0.0,0.0,0.0
24/02/2022,00:27:02,-0.000,0.0,0.0,0.0
24/02/2022,00:28:02,0.000,0.0,0.0,0.0
24/02/2022,00:29:10,0.000,0.0,0.0,0.0
24/02/2022,00:30:02,0.000,0.0,0.0,0.0
24/02/2022,00:31:02,0.000,0.0,0.0,0.0
24/02/2022,00:32:02,0.000,0.0,0.0,0.0
24/02/2022,00:33:02,-0.001,0.0,0.0,0.0
24/02/2022,00:34:02,0.000,0.0,0.0,0.0
24/02/2022,00:35:02,0.000,0.0,0.0,0.0
24/02/2022,00:36:02,-0.001,0.0,0.0,0.0
24/02/2022,00:37:02,0.000,0.0,0.0,0.0
24/02/2022,00:38:02,-0.001,0.0,0.0,0.0
24/02/2022,00:39:02,0.000,0.0,0.0,0.0
24/02/2022,00:40:02,-0.000,0.0,0.0,0.0
24/02/2022,00:41:10,0.000,0.0,0.0,0.0
24/02/2022,00:42:02,-0.000,0.0,0.0,0.0
24/02/2022,00:43:02,0.000,0.0,0.0,0.0
24/02/2022,00:44:02,0.000,0.0,0.0,0.0
24/02/2022,00:45:02,0.000,0.0,0.0,0.0
24/02/2022,00:46:02,0.001,0.0,0.0,0.0
24/02/2022,00:47:02,-0.000,0.0,0.0,0.0
24/02/2022,00:48:02,0.000,0.0,0.0,0.0
24/02/2022,00:49:02,0.000,0.0,0.0,0.0
24/02/2022,00:50:02,-0.001,0.0,0.0,0.0
24/02/2022,00:51:02,0.000,0.0,0.0,0.0
24/02/2022,00:52:02,0.000,0.0,0.0,0.0
24/02/2022,00:53:02,-0.001,0.0,0.0,0.0
24/02/2022,00:54:11,0.000,0.0,0.0,0.0
24/02/2022,00:55:00,0.001,0.0,0.0,0.0
24/02/2022,00:56:02,0.000,0.0,0.0,0.0
24/02/2022,00:57:10,-0.000,0.0,0.0,0.0
24/02/2022,00:58:20,-0.000,0.0,0.0,0.0
24/02/2022,01:00:03,0.000,0.0,0.0,0.0
24/02/2022,01:01:02,-0.001,0.0,0.0,0.0
24/02/2022,01:02:02,0.000,0.0,0.0,0.0
24/02/2022,01:03:10,0.000,0.0,0.0,0.0
24/02/2022,01:04:02,0.000,0.0,0.0,0.0
24/02/2022,01:05:02,0.001,0.0,0.0,0.0
24/02/2022,01:06:02,0.000,0.0,0.0,0.0
24/02/2022,01:07:02,0.000,0.0,0.0,0.0
24/02/2022,01:08:02,0.000,0.0,0.0,0.0
24/02/2022,01:09:02,-0.001,0.0,0.0,0.0
24/02/2022,01:10:02,0.000,0.0,0.0,0.0
24/02/2022,01:11:02,0.000,0.0,0.0,0.0
24/02/2022,01:12:02,0.000,0.0,0.0,0.0
24/02/2022,01:13:02,0.000,0.0,0.0,0.0
24/02/2022,01:14:02,0.000,0.0,0.0,0.0
24/02/2022,01:15:02,0.000,0.0,0.0,0.0
24/02/2022,01:16:11,0.000,0.0,0.0,0.0
24/02/2022,01:17:02,0.000,0.0,0.0,0.0
24/02/2022,01:18:02,0.000,0.0,0.0,0.0
24/02/2022,01:19:03,0.000,0.0,0.0,0.0
24/02/2022,01:20:02,0.000,0.0,0.0,0.0
24/02/2022,01:21:02,0.000,0.0,0.0,0.0
24/02/2022,01:22:03,0.000,0.0,0.0,0.0
24/02/2022,01:23:02,-0.000,0.0,0.0,0.0
24/02/2022,01:24:02,-0.000,0.0,0.0,0.0
24/02/2022,01:25:02,-0.001,0.0,0.0,0.0
24/02/2022,01:26:02,-0.001,0.0,0.0,0.0
24/02/2022,01:27:02,0.000,0.0,0.0,0.0
24/02/2022,01:28:02,-0.000,0.0,0.0,0.0
24/02/2022,01:29:10,-0.000,0.0,0.0,0.0
24/02/2022,01:30:02,-0.000,0.0,0.0,0.0
24/02/2022,01:31:02,-0.000,0.0,0.0,0.0
24/02/2022,01:32:10,-0.001,0.0,0.0,0.0
24/02/2022,01:33:02,-0.001,0.0,0.0,0.0
24/02/2022,01:34:02,0.000,0.0,0.0,0.0
24/02/2022,01:35:11,-0.000,0.0,0.0,0.0
24/02/2022,01:36:11,0.000,0.0,0.0,0.0
24/02/2022,01:37:02,-0.000,0.0,0.0,0.0
24/02/2022,01:38:02,-0.001,0.0,0.0,0.0
24/02/2022,01:39:02,-0.000,0.0,0.0,0.0
24/02/2022,01:40:02,-0.001,0.0,0.0,0.0
24/02/2022,01:41:02,-0.000,0.0,0.0,0.0
24/02/2022,01:42:02,-0.000,0.0,0.0,0.0
24/02/2022,01:43:02,0.000,0.0,0.0,0.0
24/02/2022,01:44:03,-0.000,0.0,0.0,0.0
24/02/2022,01:45:11,-0.001,0.0,0.0,0.0
24/02/2022,01:46:02,-0.000,0.0,0.0,0.0
24/02/2022,01:47:02,-0.000,0.0,0.0,0.0
24/02/2022,01:48:10,-0.000,0.0,0.0,0.0
24/02/2022,01:49:02,-0.001,0.0,0.0,0.0
24/02/2022,01:50:02,-0.000,0.0,0.0,0.0
24/02/2022,01:51:03,-0.001,0.0,0.0,0.0
24/02/2022,01:52:02,-0.000,0.0,0.0,0.0
24/02/2022,01:53:02,-0.001,0.0,0.0,0.0
24/02/2022,01:54:02,-0.000,0.0,0.0,0.0
24/02/2022,01:55:02,-0.000,0.0,0.0,0.0
24/02/2022,01:56:02,-0.001,0.0,0.0,0.0
24/02/2022,01:57:02,0.001,0.0,0.0,0.0
24/02/2022,01:58:11,-0.001,0.0,0.0,0.0
24/02/2022,01:59:01,-0.000,0.0,0.0,0.0
24/02/2022,02:00:03,0.000,0.0,0.0,0.0
24/02/2022,02:01:11,-0.001,0.0,0.0,0.0
24/02/2022,02:02:01,-0.000,0.0,0.0,0.0
24/02/2022,02:03:03,-0.000,0.0,0.0,0.0
24/02/2022,02:04:10,-0.000,0.0,0.0,0.0
24/02/2022,02:05:03,-0.000,0.0,0.0,0.0
24/02/2022,02:06:03,-0.000,0.0,0.0,0.0
24/02/2022,02:07:03,-0.001,0.0,0.0,0.0
24/02/2022,02:08:02,0.000,0.0,0.0,0.0
24/02/2022,02:09:02,-0.000,0.0,0.0,0.0
24/02/2022,02:10:02,-0.001,0.0,0.0,0.0
24/02/2022,02:11:02,-0.000,0.0,0.0,0.0
24/02/2022,02:12:02,0.000,0.0,0.0,0.0
24/02/2022,02:13:02,-0.000,0.0,0.0,0.0
24/02/2022,02:14:02,-0.001,0.0,0.0,0.0
24/02/2022,02:15:02,-0.000,0.0,0.0,0.0
24/02/2022,02:16:03,0.000,0.0,0.0,0.0
24/02/2022,02:17:11,-0.001,0.0,0.0,0.0
24/02/2022,02:18:02,-0.001,0.0,0.0,0.0
24/02/2022,02:19:02,-0.000,0.0,0.0,0.0
24/02/2022,02:20:11,0.000,0.0,0.0,0.0
24/02/2022,02:21:02,-0.001,0.0,0.0,0.0
24/02/2022,02:22:12,0.001,0.0,0.0,0.0
24/02/2022,02:23:02,-0.000,0.0,0.0,0.0
24/02/2022,02:24:02,0.000,0.0,0.0,0.0
24/02/2022,02:25:02,-0.000,0.0,0.0,0.0
24/02/2022,02:26:03,-0.001,0.0,0.0,0.0
24/02/2022,02:27:02,-0.001,0.0,0.0,0.0
24/02/2022,02:28:02,-0.000,0.0,0.0,0.0
24/02/2022,02:29:02,-0.000,0.0,0.0,0.0
24/02/2022,02:33:13,-0.000,0.0,0.0,0.0
24/02/2022,02:34:02,-0.000,0.0,0.0,0.0
24/02/2022,02:35:02,0.000,0.0,0.0,0.0
24/02/2022,02:36:02,-0.000,0.0,0.0,0.0
24/02/2022,02:37:03,-0.000,0.0,0.0,0.0
24/02/2022,02:38:03,0.000,0.0,0.0,0.0
24/02/2022,02:39:11,0.000,0.0,0.0,0.0
24/02/2022,02:40:02,0.000,0.0,0.0,0.0
24/02/2022,02:41:02,0.000,0.0,0.0,0.0
24/02/2022,02:42:10,0.000,0.0,0.0,0.0
24/02/2022,02:43:02,0.000,0.0,0.0,0.0
24/02/2022,02:44:19,0.000,0.0,0.0,0.0
24/02/2022,02:46:03,0.000,0.0,0.0,0.0
24/02/2022,02:47:02,0.000,0.0,0.0,0.0
24/02/2022,02:48:03,0.000,0.0,0.0,0.0
24/02/2022,02:49:02,0.000,0.0,0.0,0.0
24/02/2022,02:50:02,0.000,0.0,0.0,0.0
24/02/2022,02:50:56,0.000,0.0,0.0,0.0
24/02/2022,02:52:03,0.000,0.0,0.0,0.0
24/02/2022,02:53:02,0.000,0.0,0.0,0.0
24/02/2022,02:54:02,0.000,0.0,0.0,0.0
24/02/2022,02:55:02,0.000,0.0,0.0,0.0
24/02/2022,02:56:03,0.000,0.0,0.0,0.0
24/02/2022,02:57:03,0.000,0.0,0.0,0.0
24/02/2022,02:58:11,0.000,0.0,0.0,0.0
24/02/2022,02:59:02,0.000,0.0,0.0,0.0
24/02/2022,03:00:02,0.000,0.0,0.0,0.0
24/02/2022,03:01:02,0.000,0.0,0.0,0.0
24/02/2022,03:02:03,0.000,0.0,0.0,0.0
24/02/2022,03:03:03,0.000,0.0,0.0,0.0
24/02/2022,03:04:11,0.000,0.0,0.0,0.0
24/02/2022,03:05:03,0.000,0.0,0.0,0.0
24/02/2022,03:06:03,0.000,0.0,0.0,0.0
24/02/2022,03:07:02,0.000,0.0,0.0,0.0
24/02/2022,03:08:02,0.000,0.0,0.0,0.0
24/02/2022,03:09:03,0.000,0.0,0.0,0.0
24/02/2022,03:09:53,0.000,0.0,0.0,0.0
24/02/2022,03:11:03,0.000,0.0,0.0,0.0
24/02/2022,03:12:02,0.000,0.0,0.0,0.0
24/02/2022,03:13:03,0.000,0.0,0.0,0.0
24/02/2022,03:14:02,0.000,0.0,0.0,0.0
24/02/2022,03:15:02,0.000,0.0,0.0,0.0
24/02/2022,03:16:02,0.000,0.0,0.0,0.0
24/02/2022,03:17:10,0.000,0.0,0.0,0.0
24/02/2022,03:18:02,0.000,0.0,0.0,0.0
24/02/2022,03:19:02,0.000,0.0,0.0,0.0
24/02/2022,03:20:03,0.000,0.0,0.0,0.0
24/02/2022,03:21:02,0.000,0.0,0.0,0.0
24/02/2022,03:22:02,0.000,0.0,0.0,0.0
24/02/2022,03:23:02,0.000,0.0,0.0,0.0
24/02/2022,03:24:02,0.000,0.0,0.0,0.0
24/02/2022,03:25:03,0.000,0.0,0.0,0.0
24/02/2022,03:26:02,0.000,0.0,0.0,0.0
24/02/2022,03:27:02,0.000,0.0,0.0,0.0
24/02/2022,03:28:03,0.000,0.0,0.0,0.0
24/02/2022,03:29:03,0.000,0.0,0.0,0.0
24/02/2022,03:30:10,0.000,0.0,0.0,0.0
24/02/2022,03:31:02,0.000,0.0,0.0,0.0
24/02/2022,03:32:03,0.000,0.0,0.0,0.0
24/02/2022,03:33:02,0.000,0.0,0.0,0.0
24/02/2022,03:34:02,0.000,0.0,0.0,0.0
24/02/2022,03:35:02,-0.000,0.0,0.0,0.0
24/02/2022,03:36:02,0.000,0.0,0.0,0.0
24/02/2022,03:37:02,0.001,0.0,0.0,0.0
24/02/2022,03:38:03,0.000,0.0,0.0,0.0
24/02/2022,03:39:02,0.000,0.0,0.0,0.0
24/02/2022,03:40:02,0.000,0.0,0.0,0.0
24/02/2022,03:41:02,0.000,0.0,0.0,0.0
24/02/2022,03:42:03,0.000,0.0,0.0,0.0
24/02/2022,03:43:03,0.000,0.0,0.0,0.0
24/02/2022,03:44:02,0.000,0.0,0.0,0.0
24/02/2022,03:45:02,0.000,0.0,0.0,0.0
24/02/2022,03:46:10,0.000,0.0,0.0,0.0
24/02/2022,03:47:02,0.000,0.0,0.0,0.0
24/02/2022,03:48:02,0.000,0.0,0.0,0.0
24/02/2022,03:49:11,0.000,0.0,0.0,0.0
24/02/2022,03:50:02,0.000,0.0,0.0,0.0
24/02/2022,03:51:02,-0.001,0.0,0.0,0.0
24/02/2022,03:52:03,0.000,0.0,0.0,0.0
24/02/2022,03:53:03,0.000,0.0,0.0,0.0
24/02/2022,03:54:03,0.000,0.0,0.0,0.0
24/02/2022,03:55:02,0.000,0.0,0.0,0.0
24/02/2022,03:56:02,0.000,0.0,0.0,0.0
24/02/2022,03:57:02,0.001,0.0,0.0,0.0
24/02/2022,03:58:02,0.000,0.0,0.0,0.0
24/02/2022,03:59:03,0.000,0.0,0.0,0.0
24/02/2022,04:00:02,0.001,0.0,0.0,0.0
24/02/2022,04:01:02,0.001,0.0,0.0,0.0
24/02/2022,04:02:12,0.001,0.0,0.0,0.0
24/02/2022,04:03:02,0.000,0.0,0.0,0.0
24/02/2022,04:04:02,0.000,0.0,0.0,0.0
24/02/2022,04:05:02,0.001,0.0,0.0,0.0
24/02/2022,04:06:02,0.001,0.0,0.0,0.0
24/02/2022,04:07:02,0.001,0.0,0.0,0.0
24/02/2022,04:08:02,0.001,0.0,0.0,0.0
24/02/2022,04:09:03,0.001,0.0,0.0,0.0
24/02/2022,04:10:02,0.001,0.0,0.0,0.0
24/02/2022,04:11:11,0.001,0.0,0.0,0.0
24/02/2022,04:12:03,0.001,0.0,0.0,0.0
24/02/2022,04:13:03,0.001,0.0,0.0,0.0
24/02/2022,04:14:11,0.001,0.0,0.0,0.0
24/02/2022,04:15:02,0.000,0.0,0.0,0.0
24/02/2022,04:16:02,0.001,0.0,0.0,0.0
24/02/2022,04:17:10,0.001,0.0,0.0,0.0
24/02/2022,04:18:02,0.000,0.0,0.0,0.0
24/02/2022,04:19:02,0.000,0.0,0.0,0.0
24/02/2022,04:20:02,0.001,0.0,0.0,0.0
24/02/2022,04:21:02,0.000,0.0,0.0,0.0
24/02/2022,04:22:03,0.000,0.0,0.0,0.0
24/02/2022,04:23:03,0.000,0.0,0.0,0.0
24/02/2022,04:24:03,0.000,0.0,0.0,0.0
24/02/2022,04:25:02,0.000,0.0,0.0,0.0
24/02/2022,04:26:03,0.000,0.0,0.0,0.0
24/02/2022,04:27:03,0.000,0.0,0.0,0.0
24/02/2022,04:28:03,0.001,0.0,0.0,0.0
24/02/2022,04:29:02,0.000,0.0,0.0,0.0
24/02/2022,04:30:02,0.000,0.0,0.0,0.0
24/02/2022,04:31:02,0.000,0.0,0.0,0.0
24/02/2022,04:32:02,0.000,0.0,0.0,0.0
24/02/2022,04:33:11,0.000,0.0,0.0,0.0
24/02/2022,04:34:03,0.000,0.0,0.0,0.0
24/02/2022,04:35:03,0.000,0.0,0.0,0.0
24/02/2022,04:36:02,0.000,0.0,0.0,0.0
24/02/2022,04:37:03,0.000,0.0,0.0,0.0
24/02/2022,04:38:02,0.001,0.0,0.0,0.0
24/02/2022,04:39:03,0.000,0.0,0.0,0.0
24/02/2022,04:40:02,0.000,0.0,0.0,0.0
24/02/2022,04:41:03,0.000,0.0,0.0,0.0
24/02/2022,04:42:02,0.000,0.0,0.0,0.0
24/02/2022,04:43:03,0.000,0.0,0.0,0.0
24/02/2022,04:44:02,0.001,0.0,0.0,0.0
24/02/2022,04:45:03,0.000,0.0,0.0,0.0
24/02/2022,04:46:02,0.001,0.0,0.0,0.0
24/02/2022,04:47:03,0.000,0.0,0.0,0.0
24/02/2022,04:48:03,0.001,0.0,0.0,0.0
24/02/2022,04:49:11,0.000,0.0,0.0,0.0
24/02/2022,04:50:02,-0.001,0.0,0.0,0.0
24/02/2022,04:51:03,0.001,0.0,0.0,0.0
24/02/2022,04:52:11,0.000,0.0,0.0,0.0
24/02/2022,04:53:03,-0.000,0.0,0.0,0.0
24/02/2022,04:54:02,0.000,0.0,0.0,0.0
24/02/2022,04:55:02,0.000,0.0,0.0,0.0
24/02/2022,04:56:03,0.001,0.0,0.0,0.0
24/02/2022,04:57:02,0.000,0.0,0.0,0.0
24/02/2022,04:58:03,0.000,0.0,0.0,0.0
24/02/2022,04:59:02,0.001,0.0,0.0,0.0
24/02/2022,05:00:03,0.000,0.0,0.0,0.0
24/02/2022,05:01:02,0.000,0.0,0.0,0.0
24/02/2022,05:02:03,0.000,0.0,0.0,0.0
24/02/2022,05:03:03,0.001,0.0,0.0,0.0
24/02/2022,05:04:02,0.000,0.0,0.0,0.0
24/02/2022,05:05:11,0.001,0.0,0.0,0.0
24/02/2022,05:06:03,0.001,0.0,0.0,0.0
24/02/2022,05:07:02,0.002,0.0,0.0,0.0
24/02/2022,05:08:02,0.001,0.0,0.0,0.0
24/02/2022,05:09:02,0.000,0.0,0.0,0.0
24/02/2022,05:10:03,0.001,0.0,0.0,0.0
24/02/2022,05:11:11,0.000,0.0,0.0,0.0
24/02/2022,05:12:03,0.000,0.0,0.0,0.0
24/02/2022,05:13:03,0.001,0.0,0.0,0.0
24/02/2022,05:14:11,0.001,0.0,0.0,0.0
24/02/2022,05:15:02,0.000,0.0,0.0,0.0
24/02/2022,05:16:02,0.000,0.0,0.0,0.0
24/02/2022,05:17:02,0.001,0.0,0.0,0.0
24/02/2022,05:18:02,0.001,0.0,0.0,0.0
24/02/2022,05:19:02,0.001,0.0,0.0,0.0
24/02/2022,05:20:03,0.001,0.0,0.0,0.0
24/02/2022,05:21:02,0.001,0.0,0.0,0.0
24/02/2022,05:22:03,0.000,0.0,0.0,0.0
24/02/2022,05:23:03,0.001,0.0,0.0,0.0
24/02/2022,05:24:02,0.001,0.0,0.0,0.0
24/02/2022,05:25:02,0.001,0.0,0.0,0.0
24/02/2022,05:26:02,0.000,0.0,0.0,0.0
24/02/2022,05:27:55,0.001,0.0,0.0,0.0
24/02/2022,05:29:19,0.001,0.0,0.0,0.0
24/02/2022,05:31:03,0.001,0.0,0.0,0.0
24/02/2022,05:32:02,0.001,0.0,0.0,0.0
24/02/2022,05:33:02,0.001,0.0,0.0,0.0
24/02/2022,05:34:03,0.001,0.0,0.0,0.0
24/02/2022,05:35:03,0.001,0.0,0.0,0.0
24/02/2022,05:36:03,0.001,0.0,0.0,0.0
24/02/2022,05:37:03,0.000,0.0,0.0,0.0
24/02/2022,05:38:02,0.001,0.0,0.0,0.0
24/02/2022,05:39:02,0.001,0.0,0.0,0.0
24/02/2022,05:40:02,0.001,0.0,0.0,0.0
24/02/2022,05:41:02,0.001,0.0,0.0,0.0
24/02/2022,05:42:03,0.000,0.0,0.0,0.0
24/02/2022,05:43:02,0.001,0.0,0.0,0.0
24/02/2022,05:44:10,0.001,0.0,0.0,0.0
24/02/2022,05:45:03,0.001,0.0,0.0,0.0
24/02/2022,05:46:03,0.000,0.0,0.0,0.0
24/02/2022,05:47:02,0.001,0.0,0.0,0.0
24/02/2022,05:48:02,0.001,0.0,0.0,0.0
24/02/2022,05:49:03,0.001,0.0,0.0,0.0
24/02/2022,05:50:03,0.000,0.0,0.0,0.0
24/02/2022,05:51:03,0.001,0.0,0.0,0.0
24/02/2022,05:52:03,0.001,0.0,0.0,0.0
24/02/2022,05:53:03,0.001,0.0,0.0,0.0
24/02/2022,05:54:02,0.000,0.0,0.0,0.0
24/02/2022,05:55:11,0.001,0.0,0.0,0.0
24/02/2022,05:56:03,0.000,0.0,0.0,0.0
24/02/2022,05:57:03,0.001,0.0,0.0,0.0
24/02/2022,05:58:12,0.000,0.0,0.0,0.0
24/02/2022,05:59:01,0.001,0.0,0.0,0.0
24/02/2022,06:00:02,0.001,0.0,0.0,0.0
24/02/2022,06:01:03,0.001,0.0,0.0,0.0
24/02/2022,06:02:03,0.001,0.0,0.0,0.0
24/02/2022,06:03:03,0.002,0.0,0.0,0.0
24/02/2022,06:04:03,0.000,0.0,0.0,0.0
24/02/2022,06:05:03,0.001,0.0,0.0,0.0
24/02/2022,06:06:02,0.001,0.0,0.0,0.0
24/02/2022,06:07:03,0.000,0.0,0.0,0.0
24/02/2022,06:08:11,0.001,0.0,0.0,0.0
24/02/2022,06:09:03,0.001,0.0,0.0,0.0
24/02/2022,06:10:03,0.001,0.0,0.0,0.0
24/02/2022,06:11:10,0.001,0.0,0.0,0.0
24/02/2022,06:12:02,0.001,0.0,0.0,0.0
24/02/2022,06:13:03,0.001,0.0,0.0,0.0
24/02/2022,06:14:12,0.001,0.0,0.0,0.0
24/02/2022,06:15:02,0.001,0.0,0.0,0.0
24/02/2022,06:16:04,0.001,0.0,0.0,0.0
24/02/2022,06:17:11,0.001,0.0,0.0,0.0
24/02/2022,06:18:03,0.001,0.0,0.0,0.0
24/02/2022,06:19:03,0.001,0.0,0.0,0.0
24/02/2022,06:20:02,0.001,0.0,0.0,0.0
24/02/2022,06:21:02,0.002,0.0,0.0,0.0
24/02/2022,06:22:03,0.001,0.0,0.0,0.0
24/02/2022,06:23:03,0.001,0.0,0.0,0.0
24/02/2022,06:24:02,0.002,0.0,0.0,0.0
24/02/2022,06:25:03,0.001,0.0,0.0,0.0
24/02/2022,06:26:02,0.001,0.0,0.0,0.0
24/02/2022,06:27:02,0.002,0.0,0.0,0.0
24/02/2022,06:28:03,0.002,0.0,0.0,0.0
24/02/2022,06:29:03,0.002,0.0,0.0,0.0
24/02/2022,06:30:11,0.001,0.0,0.0,0.0
24/02/2022,06:31:02,0.002,0.0,0.0,0.0
24/02/2022,06:32:02,0.001,0.0,0.0,0.0
24/02/2022,06:33:03,0.001,0.0,0.0,0.0
24/02/2022,06:34:03,0.001,0.0,0.0,0.0
24/02/2022,06:35:03,0.001,0.0,0.0,0.0
24/02/2022,06:36:03,0.001,0.0,0.0,0.0
24/02/2022,06:37:03,0.001,0.0,0.0,0.0
24/02/2022,06:38:02,0.001,0.0,0.0,0.0
24/02/2022,06:39:02,0.001,0.0,0.0,0.0
24/02/2022,06:40:03,0.001,0.0,0.0,0.0
24/02/2022,06:41:03,0.001,0.0,0.0,0.0
24/02/2022,06:42:03,0.001,0.0,0.0,0.0
24/02/2022,06:43:03,0.001,0.0,0.0,0.0
24/02/2022,06:44:03,0.001,0.0,0.0,0.0
24/02/2022,06:45:11,0.002,0.0,0.0,0.0
24/02/2022,06:46:03,0.001,0.0,0.0,0.0
24/02/2022,06:47:03,0.001,0.0,0.0,0.0
24/02/2022,06:48:02,0.001,0.0,0.0,0.0
24/02/2022,06:49:02,0.001,0.0,0.0,0.0
24/02/2022,06:50:03,0.001,0.0,0.0,0.0
24/02/2022,06:51:11,0.001,0.0,0.0,0.0
24/02/2022,06:52:03,0.001,0.0,0.0,0.0
24/02/2022,06:53:03,0.001,0.0,0.0,0.0
24/02/2022,06:54:02,0.001,0.0,0.0,0.0
24/02/2022,06:55:02,0.001,0.0,0.0,0.0
24/02/2022,06:56:03,0.001,0.0,0.0,0.0
24/02/2022,06:57:03,0.001,0.0,0.0,0.0
24/02/2022,06:58:02,0.002,0.0,0.0,0.0
24/02/2022,06:59:02,0.001,0.0,0.0,0.0
24/02/2022,07:00:03,0.001,0.0,0.0,0.0
24/02/2022,07:01:03,0.001,0.0,0.0,0.0
24/02/2022,07:02:03,0.001,0.0,0.0,0.0
24/02/2022,07:03:02,0.001,0.0,0.0,0.0
24/02/2022,07:04:10,0.002,0.0,0.0,0.0
24/02/2022,07:05:02,0.002,0.0,0.0,0.0
24/02/2022,07:06:03,0.002,0.0,0.0,0.0
24/02/2022,07:07:11,0.003,0.0,0.0,0.0
24/02/2022,07:08:03,0.002,0.0,0.0,0.0
24/02/2022,07:09:03,0.002,0.0,0.0,0.0
24/02/2022,07:10:02,0.002,0.0,0.0,0.0
24/02/2022,07:11:03,0.002,0.0,0.0,0.0
24/02/2022,07:12:05,0.002,0.0,0.0,0.0
24/02/2022,07:13:12,0.002,0.0,0.0,0.0
24/02/2022,07:14:02,0.002,0.0,0.0,0.0
24/02/2022,07:15:02,0.002,0.0,0.0,0.0
24/02/2022,07:16:03,0.002,0.0,0.0,0.0
24/02/2022,07:17:02,0.002,0.0,0.0,0.0
24/02/2022,07:18:02,0.002,0.0,0.0,0.0
24/02/2022,07:19:03,0.002,0.0,0.0,0.0
24/02/2022,07:20:02,0.002,0.0,0.0,0.0
24/02/2022,07:21:03,0.002,0.0,0.0,0.0
24/02/2022,07:22:03,0.002,0.0,0.0,0.0
24/02/2022,07:23:11,0.003,0.0,0.0,0.0
24/02/2022,07:24:03,0.002,0.0,0.0,0.0
24/02/2022,07:25:02,0.002,0.0,0.0,0.0
24/02/2022,07:26:02,0.003,0.0,0.0,0.0
24/02/2022,07:27:03,0.002,0.0,0.0,0.0
24/02/2022,07:28:02,0.003,0.0,0.0,0.0
24/02/2022,07:29:03,0.003,0.0,0.0,0.0
24/02/2022,07:30:03,0.002,0.0,0.0,0.0
24/02/2022,07:31:03,0.003,0.0,0.0,0.0
24/02/2022,07:32:02,0.003,0.0,0.0,0.0
24/02/2022,07:33:02,0.002,0.0,0.0,0.0
24/02/2022,07:34:03,0.003,0.0,0.0,0.0
24/02/2022,07:35:03,0.002,0.0,0.0,0.0
24/02/2022,07:36:02,0.004,0.0,0.0,0.0
24/02/2022,07:37:02,0.004,0.0,0.0,0.0
24/02/2022,07:38:03,0.004,0.0,0.0,0.0
24/02/2022,07:39:03,0.003,0.0,0.0,0.0
24/02/2022,07:40:03,0.005,0.0,0.0,0.0
24/02/2022,07:41:03,0.004,0.0,0.0,0.0
24/02/2022,07:42:04,0.003,0.0,0.0,0.0
24/02/2022,07:43:03,0.003,0.0,0.0,0.0
24/02/2022,07:44:03,0.004,0.0,0.0,0.0
24/02/2022,07:45:03,0.004,0.0,0.0,0.0
24/02/2022,07:46:03,0.005,0.0,0.0,0.0
24/02/2022,07:47:03,0.005,0.0,0.0,0.0
24/02/2022,07:48:03,0.006,0.0,0.0,0.0
24/02/2022,07:49:03,0.006,0.0,0.0,0.0
24/02/2022,07:50:03,0.006,0.0,0.0,0.0
24/02/2022,07:51:03,0.005,0.0,0.0,0.0
24/02/2022,07:52:03,0.007,0.0,0.0,0.0
24/02/2022,07:53:02,0.007,0.0,0.0,0.0
24/02/2022,07:54:03,0.006,0.0,0.001,0.001
24/02/2022,07:55:02,0.007,0.0,0.001,0.0
24/02/2022,07:56:03,0.006,0.0,0.001,0.0
24/02/2022,07:57:03,0.008,0.0,0.001,0.0
24/02/2022,07:58:03,0.008,0.0,0.001,0.0
24/02/2022,07:59:03,0.008,0.0,0.001,0.0
24/02/2022,08:00:11,0.008,0.0,0.001,0.0
24/02/2022,08:01:03,0.008,0.0,0.001,0.0
24/02/2022,08:02:03,0.007,0.0,0.002,0.001
24/02/2022,08:03:03,0.008,0.0,0.002,0.0
24/02/2022,08:04:02,0.010,0.0,0.002,0.0
24/02/2022,08:05:02,0.010,0.0,0.002,0.0
24/02/2022,08:06:03,0.011,0.0,0.002,0.0
24/02/2022,08:07:03,0.011,0.0,0.002,0.0
24/02/2022,08:08:02,0.012,0.0,0.003,0.001
24/02/2022,08:09:02,0.012,0.0,0.003,0.0
24/02/2022,08:10:04,0.011,0.0,0.003,0.0
24/02/2022,08:11:03,0.013,0.0,0.003,0.0
24/02/2022,08:12:02,0.013,0.0,0.003,0.0
24/02/2022,08:13:03,0.014,0.0,0.004,0.001
24/02/2022,08:14:03,0.015,0.0,0.004,0.0
24/02/2022,08:15:02,0.016,0.0,0.004,0.0
24/02/2022,08:16:12,0.016,0.0,0.004,0.0
24/02/2022,08:17:02,0.015,0.0,0.005,0.001
24/02/2022,08:18:03,0.016,0.0,0.005,0.0
24/02/2022,08:19:03,0.016,0.0,0.005,0.0
24/02/2022,08:20:03,0.016,0.0,0.005,0.0
24/02/2022,08:21:03,0.015,0.0,0.006,0.001
24/02/2022,08:22:11,0.013,0.0,0.006,0.0
24/02/2022,08:23:03,0.013,0.0,0.006,0.0
24/02/2022,08:24:03,0.014,0.0,0.006,0.0
24/02/2022,08:25:02,0.016,0.0,0.007,0.001
24/02/2022,08:26:02,0.016,0.0,0.007,0.0
24/02/2022,08:27:03,0.016,0.0,0.007,0.0
24/02/2022,08:28:03,0.016,0.0,0.007,0.0
24/02/2022,08:29:03,0.015,0.0,0.008,0.001
24/02/2022,08:30:03,0.015,0.0,0.008,0.0
24/02/2022,08:31:02,0.013,0.0,0.008,0.0
24/02/2022,08:32:03,0.012,0.0,0.008,0.0
24/02/2022,08:33:55,0.012,0.0,0.009,0.001
24/02/2022,08:35:03,0.014,0.0,0.009,0.0
24/02/2022,08:36:04,0.013,0.0,0.009,0.0
24/02/2022,08:37:03,0.010,0.0,0.009,0.0
24/02/2022,08:38:11,0.013,0.0,0.01,0.001
24/02/2022,08:39:02,0.017,0.0,0.01,0.0
24/02/2022,08:40:03,0.020,0.0,0.01,0.0
24/02/2022,08:41:03,0.020,0.0,0.01,0.0
24/02/2022,08:42:03,0.022,0.0,0.011,0.001
24/02/2022,08:43:03,0.022,0.0,0.011,0.0
24/02/2022,08:44:02,0.022,0.0,0.012,0.001
24/02/2022,08:45:03,0.020,0.0,0.012,0.0
24/02/2022,08:46:03,0.020,0.0,0.012,0.0
24/02/2022,08:47:03,0.021,0.0,0.013,0.001
24/02/2022,08:48:11,0.020,0.0,0.013,0.0
24/02/2022,08:49:03,0.020,0.0,0.013,0.0
24/02/2022,08:50:03,0.017,0.0,0.014,0.001
24/02/2022,08:51:11,0.018,0.0,0.014,0.0
24/02/2022,08:52:03,0.018,0.0,0.014,0.0
24/02/2022,08:53:03,0.019,0.0,0.014,0.0
24/02/2022,08:54:11,0.022,0.0,0.015,0.001
24/02/2022,08:55:03,0.024,0.0,0.015,0.0
24/02/2022,08:56:03,0.027,0.0,0.016,0.001
24/02/2022,08:57:11,0.032,0.0,0.016,0.0
24/02/2022,08:58:02,0.035,0.0,0.017,0.001
24/02/2022,08:59:03,0.037,0.0,0.017,0.0
24/02/2022,09:00:03,0.038,0.0,0.018,0.001
24/02/2022,09:01:03,0.038,0.0,0.019,0.001
24/02/2022,09:02:03,0.040,0.0,0.019,0.0
24/02/2022,09:03:03,0.040,0.0,0.02,0.001
24/02/2022,09:04:03,0.042,0.0,0.02,0.0
24/02/2022,09:05:02,0.042,0.0,0.021,0.001
24/02/2022,09:06:03,0.042,0.0,0.022,0.001
24/02/2022,09:07:03,0.042,0.0,0.023,0.001
24/02/2022,09:08:03,0.043,0.0,0.023,0.0
24/02/2022,09:09:03,0.043,0.0,0.024,0.001
24/02/2022,09:10:11,0.043,0.0,0.025,0.001
24/02/2022,09:11:03,0.043,0.0,0.025,0.0
24/02/2022,09:12:03,0.044,0.0,0.026,0.001
24/02/2022,09:13:04,0.046,0.0,0.027,0.001
24/02/2022,09:14:03,0.047,0.0,0.028,0.001
24/02/2022,09:15:02,0.049,0.0,0.028,0.0
24/02/2022,09:16:03,0.047,0.0,0.029,0.001
24/02/2022,09:17:03,0.048,0.0,0.03,0.001
24/02/2022,09:18:03,0.048,0.0,0.031,0.001
24/02/2022,09:19:03,0.051,0.0,0.032,0.001
24/02/2022,09:20:03,0.051,0.0,0.033,0.001
24/02/2022,09:21:03,0.051,0.0,0.033,0.0
24/02/2022,09:22:03,0.052,0.0,0.034,0.001
24/02/2022,09:23:03,0.053,0.0,0.035,0.001
24/02/2022,09:24:03,0.055,0.0,0.036,0.001
24/02/2022,09:25:03,0.057,0.0,0.037,0.001
24/02/2022,09:26:03,0.063,0.0,0.038,0.001
24/02/2022,09:27:04,0.068,0.0,0.039,0.001
24/02/2022,09:28:03,0.073,0.0,0.04,0.001
24/02/2022,09:29:02,0.076,0.0,0.041,0.001
24/02/2022,09:30:03,0.079,0.0,0.043,0.002
24/02/2022,09:31:02,0.081,0.0,0.044,0.001
24/02/2022,09:32:03,0.082,0.0,0.046,0.002
24/02/2022,09:33:03,0.084,0.0,0.047,0.001
24/02/2022,09:34:03,0.086,0.0,0.048,0.001
24/02/2022,09:35:03,0.090,0.0,0.05,0.002
24/02/2022,09:36:03,0.092,0.0,0.051,0.001
24/02/2022,09:37:03,0.093,0.0,0.053,0.002
24/02/2022,09:38:02,0.091,0.0,0.054,0.001
24/02/2022,09:39:03,0.089,0.0,0.056,0.002
24/02/2022,09:40:03,0.088,0.0,0.057,0.001
24/02/2022,09:41:03,0.088,0.0,0.059,0.002
24/02/2022,09:42:03,0.087,0.0,0.06,0.001
24/02/2022,09:43:02,0.091,0.0,0.062,0.002
24/02/2022,09:44:12,0.094,0.0,0.063,0.001
24/02/2022,09:45:03,0.100,0.0,0.065,0.002
24/02/2022,09:46:03,0.105,0.0,0.067,0.002
24/02/2022,09:47:11,0.111,0.0,0.069,0.002
24/02/2022,09:48:03,0.113,0.0,0.07,0.001
24/02/2022,09:49:03,0.113,0.0,0.072,0.002
24/02/2022,09:50:03,0.113,0.0,0.074,0.002
24/02/2022,09:51:56,0.117,0.0,0.078,0.004
24/02/2022,09:53:03,0.121,0.0,0.08,0.002
24/02/2022,09:54:03,0.124,0.0,0.082,0.002
24/02/2022,09:55:03,0.128,0.0,0.084,0.002
24/02/2022,09:56:03,0.128,0.0,0.086,0.002
24/02/2022,09:57:03,0.127,0.0,0.088,0.002
24/02/2022,09:58:03,0.125,0.0,0.09,0.002
24/02/2022,09:59:03,0.122,0.0,0.092,0.002
24/02/2022,10:00:03,0.121,0.0,0.094,0.002
24/02/2022,10:01:03,0.120,0.0,0.096,0.002
24/02/2022,10:02:03,0.123,0.0,0.099,0.003
24/02/2022,10:03:03,0.128,0.0,0.101,0.002
24/02/2022,10:04:03,0.138,0.0,0.103,0.002
24/02/2022,10:05:03,0.138,0.0,0.105,0.002
24/02/2022,10:06:03,0.155,0.0,0.108,0.003
24/02/2022,10:07:03,0.156,0.0,0.11,0.002
24/02/2022,10:08:03,0.165,0.0,0.113,0.003
24/02/2022,10:09:03,0.194,0.0,0.116,0.003
24/02/2022,10:10:03,0.166,0.0,0.119,0.003
24/02/2022,10:11:03,0.163,0.0,0.122,0.003
24/02/2022,10:12:11,0.188,0.0,0.125,0.003
24/02/2022,10:13:03,0.163,0.0,0.127,0.002
24/02/2022,10:14:03,0.168,0.0,0.13,0.003
24/02/2022,10:15:03,0.175,0.0,0.133,0.003
24/02/2022,10:16:04,0.190,0.0,0.136,0.003
24/02/2022,10:17:03,0.209,0.0,0.139,0.003
24/02/2022,10:18:03,0.219,1.0,0.142,0.003
24/02/2022,10:19:05,0.193,0.0,0.146,0.004
24/02/2022,10:20:03,0.183,0.0,0.149,0.003
24/02/2022,10:21:03,0.181,0.0,0.152,0.003
24/02/2022,10:22:03,0.228,1.0,0.155,0.003
24/02/2022,10:23:03,0.229,1.0,0.159,0.004
24/02/2022,10:24:03,0.231,1.0,0.163,0.004
24/02/2022,10:25:11,0.235,1.0,0.167,0.004
24/02/2022,10:26:03,0.235,1.0,0.171,0.004
24/02/2022,10:27:11,0.238,1.0,0.175,0.004